Location: Stockholm
(59.3330°N, 18.0500°E)
Time: 13:48:44
(UTC+01:00)

Envisat - Pass Details

Date: 06 December 2022
Orbit: 763 x 765 km, 98.2° (Epoch: 29 January)

Event Time Altitude Azimuth Distance (km) Brightness Sun altitude
Rises 06:42:41 0° 16° (NNE) 3,250 6.2 -11.5°
Reaches altitude 10° 06:45:42 10° 357° (N) 2,319 5.2 -11.1°
Maximum altitude 06:48:58 18° 317° (NW) 1,850 4.4 -10.8°
Enters shadow 06:51:12 13° 287° (WNW) 2,081 4.6 -10.5°
